Location: Poughquag
(41.6090°N, 73.6820°W)
Time: 08:55:59
(UTC-04:00)

ISS - Pass Details

Date: 25 May 2019
Orbit: 408 x 418 km, 51.6° (Epoch: 17 June)

Event Time Altitude Azimuth Distance (km) Brightness Sun altitude
Rises 21:59:05 0° 298° (WNW) 2,354 1.4 -15.7°
Reaches altitude 10° 22:01:53 10° 323° (NW) 1,494 0.4 -16.0°
Maximum altitude 22:03:52 15° 360° (N) 1,242 -0.7 -16.3°
Drops below altitude 10° 22:05:51 10° 36° (NE) 1,498 -0.8 -16.5°
Sets 22:08:40 0° 62° (ENE) 2,364 -0.1 -16.9°
